• In Hungary
  • List of Countries
  • For 7 days
  • Water Temperature
  • Satellite Maps
  • Weather Map
  • News
  • Weather Widgets
  • user-avatar
    Login

    Hourly Weather Butaki

    Today, 17 August, Friday

    Time Temperature Precipitation Wind Pressure Humidity
    00:00 +13°C° 0 mm 1 mps 747 mmHg 94%
    01:00 +13°C° 0 mm 1 mps 748 mmHg 95%
    02:00 +12°C° 0 mm 1 mps 748 mmHg 96%
    03:00 +12°C° 0 mm 1 mps 748 mmHg 96%
    04:00 +12°C° 0 mm 1 mps 748 mmHg 96%
    05:00 +12°C° 0 mm 1 mps 749 mmHg 96%
    06:00 +14°C° 0 mm 1 mps 749 mmHg 88%
    07:00 +16°C° 0 mm 2 mps 749 mmHg 80%
    08:00 +18°C° 0 mm 2 mps 749 mmHg 69%
    09:00 +20°C° 0 mm 2 mps 749 mmHg 63%
    10:00 +21°C° 0 mm 2 mps 749 mmHg 57%
    11:00 +23°C° 0 mm 2 mps 749 mmHg 51%
    12:00 +24°C° 0 mm 2 mps 749 mmHg 50%
    13:00 +24°C° 0 mm 2 mps 749 mmHg 48%
    14:00 +25°C° 0 mm 2 mps 749 mmHg 46%
    15:00 +25°C° 0 mm 2 mps 748 mmHg 49%
    16:00 +24°C° 0 mm 2 mps 748 mmHg 53%
    17:00 +24°C° 0 mm 2 mps 748 mmHg 56%
    18:00 +20°C° 0 mm 2 mps 748 mmHg 64%
    19:00 +18°C° 0 mm 2 mps 748 mmHg 72%
    20:00 +16°C° 0 mm 2 mps 748 mmHg 80%
    21:00 +15°C° 0 mm 2 mps 748 mmHg 82%
    22:00 +15°C° 0 mm 2 mps 748 mmHg 84%
    23:00 +14°C° 0 mm 2 mps 748 mmHg 86%

    Tomorrow, 18 August, Saturday

    Time Temperature Precipitation Wind Pressure Humidity
    00:00 +14°C° 0 mm 2 mps 748 mmHg 87%
    01:00 +13°C° 0 mm 2 mps 748 mmHg 87%
    02:00 +13°C° 0 mm 2 mps 748 mmHg 88%
    03:00 +13°C° 0 mm 2 mps 748 mmHg 90%
    04:00 +12°C° 0 mm 2 mps 748 mmHg 91%
    05:00 +12°C° 0 mm 2 mps 748 mmHg 92%
    06:00 +14°C° 0 mm 2 mps 748 mmHg 85%
    07:00 +17°C° 0 mm 2 mps 748 mmHg 78%
    08:00 +19°C° 0 mm 2 mps 748 mmHg 71%
    09:00 +20°C° 0 mm 2 mps 748 mmHg 65%
    10:00 +23°C° 0 mm 2 mps 748 mmHg 59%
    11:00 +25°C° 0 mm 3 mps 748 mmHg 53%
    12:00 +25°C° 0 mm 3 mps 748 mmHg 51%
    13:00 +26°C° 0 mm 3 mps 748 mmHg 49%
    14:00 +26°C° 0 mm 2 mps 747 mmHg 48%
    15:00 +26°C° 0 mm 2 mps 747 mmHg 51%
    16:00 +26°C° 0 mm 2 mps 747 mmHg 54%
    17:00 +25°C° 0 mm 2 mps 747 mmHg 58%
    18:00 +23°C° 0 mm 2 mps 747 mmHg 65%
    19:00 +20°C° 0 mm 2 mps 747 mmHg 73%
    20:00 +18°C° 0 mm 2 mps 747 mmHg 81%
    21:00 +17°C° 0 mm 2 mps 747 mmHg 83%
    22:00 +17°C° 0 mm 2 mps 746 mmHg 86%
    23:00 +16°C° 0 mm 2 mps 746 mmHg 88%

    Day after tomorrow, 19 August, Sunday

    Time Temperature Precipitation Wind Pressure Humidity
    00:00 +16°C° 0.1 mm 2 mps 746 mmHg 89%
    01:00 +16°C° 0.1 mm 2 mps 746 mmHg 90%
    02:00 +15°C° 0.1 mm 2 mps 746 mmHg 91%
    03:00 +16°C° 0 mm 2 mps 746 mmHg 90%
    04:00 +16°C° 0 mm 2 mps 746 mmHg 89%
    05:00 +16°C° 0 mm 3 mps 746 mmHg 89%
    06:00 +17°C° 0 mm 3 mps 746 mmHg 83%
    07:00 +19°C° 0 mm 3 mps 746 mmHg 78%
    08:00 +20°C° 0 mm 3 mps 746 mmHg 73%
    09:00 +22°C° 0 mm 3 mps 745 mmHg 68%
    10:00 +23°C° 0 mm 4 mps 745 mmHg 64%
    11:00 +26°C° 0 mm 4 mps 745 mmHg 59%
    12:00 +26°C° 0.4 mm 4 mps 745 mmHg 61%
    13:00 +26°C° 0.4 mm 4 mps 744 mmHg 64%
    14:00 +26°C° 0.4 mm 4 mps 744 mmHg 66%
    15:00 +25°C° 0.6 mm 3 mps 743 mmHg 73%
    16:00 +24°C° 0.6 mm 3 mps 743 mmHg 79%
    17:00 +24°C° 0.6 mm 3 mps 743 mmHg 85%
    18:00 +21°C° 0.2 mm 2 mps 743 mmHg 89%
    19:00 +20°C° 0.2 mm 2 mps 743 mmHg 92%
    20:00 +19°C° 0.2 mm 2 mps 743 mmHg 96%
    21:00 +18°C° 0 mm 2 mps 743 mmHg 95%
    22:00 +17°C° 0 mm 2 mps 743 mmHg 95%
    23:00 +17°C° 0 mm 2 mps 743 mmHg 94%

    20 August, Monday

    Time Temperature Precipitation Wind Pressure Humidity
    00:00 +16°C° 0 mm 2 mps 743 mmHg 94%
    01:00 +15°C° 0 mm 2 mps 743 mmHg 93%
    02:00 +15°C° 0 mm 1 mps 743 mmHg 93%
    03:00 +15°C° 0 mm 1 mps 743 mmHg 94%
    04:00 +15°C° 0 mm 1 mps 743 mmHg 95%
    05:00 +15°C° 0 mm 1 mps 743 mmHg 96%
    06:00 +16°C° 0 mm 2 mps 743 mmHg 94%
    07:00 +17°C° 0 mm 2 mps 743 mmHg 91%
    08:00 +18°C° 0 mm 2 mps 743 mmHg 88%
    09:00 +20°C° 0.1 mm 2 mps 743 mmHg 81%
    10:00 +21°C° 0.1 mm 3 mps 743 mmHg 74%
    11:00 +22°C° 0.1 mm 3 mps 743 mmHg 67%
    12:00 +22°C° 0.4 mm 3 mps 743 mmHg 70%
    13:00 +22°C° 0.4 mm 3 mps 743 mmHg 73%
    14:00 +22°C° 0.4 mm 3 mps 743 mmHg 76%
    15:00 +23°C° 0.4 mm 2 mps 743 mmHg 80%
    16:00 +21°C° 0.4 mm 2 mps 742 mmHg 83%
    17:00 +21°C° 0.4 mm 2 mps 742 mmHg 87%
    18:00 +19°C° 0.2 mm 2 mps 742 mmHg 90%
    19:00 +19°C° 0.2 mm 1 mps 742 mmHg 93%
    20:00 +18°C° 0.2 mm 1 mps 742 mmHg 96%
    21:00 +18°C° 0.1 mm 1 mps 742 mmHg 96%
    22:00 +18°C° 0.1 mm 1 mps 742 mmHg 97%
    23:00 +18°C° 0.1 mm 1 mps 742 mmHg 97%

    21 August, Tuesday

    Time Temperature Precipitation Wind Pressure Humidity
    00:00 +16°C° 0 mm 1 mps 742 mmHg 98%
    01:00 +16°C° 0 mm 1 mps 742 mmHg 98%
    02:00 +16°C° 0 mm 1 mps 742 mmHg 98%
    03:00 +16°C° 0 mm 1 mps 741 mmHg 98%
    04:00 +16°C° 0 mm 2 mps 741 mmHg 98%
    05:00 +16°C° 0 mm 2 mps 741 mmHg 98%
    06:00 +17°C° 0 mm 2 mps 741 mmHg 95%
    07:00 +18°C° 0 mm 3 mps 741 mmHg 93%
    08:00 +19°C° 0 mm 3 mps 741 mmHg 90%
    09:00 +20°C° 0.7 mm 3 mps 740 mmHg 88%
    10:00 +20°C° 0.7 mm 3 mps 740 mmHg 87%
    11:00 +21°C° 0.7 mm 3 mps 739 mmHg 85%
    12:00 +21°C° 0.8 mm 4 mps 739 mmHg 85%
    13:00 +21°C° 0.8 mm 4 mps 739 mmHg 85%
    14:00 +21°C° 0.8 mm 4 mps 738 mmHg 84%
    15:00 +21°C° 0.6 mm 4 mps 738 mmHg 86%
    16:00 +20°C° 0.6 mm 4 mps 737 mmHg 88%
    17:00 +20°C° 0.6 mm 4 mps 737 mmHg 90%
    18:00 +19°C° 0.7 mm 4 mps 737 mmHg 91%
    19:00 +19°C° 0.7 mm 4 mps 737 mmHg 93%
    20:00 +18°C° 0.7 mm 4 mps 736 mmHg 95%
    21:00 +17°C° 0.1 mm 4 mps 737 mmHg 95%
    22:00 +17°C° 0.1 mm 4 mps 737 mmHg 95%
    23:00 +15°C° 0.1 mm 4 mps 737 mmHg 95%

    22 August, Wednesday

    Time Temperature Precipitation Wind Pressure Humidity
    00:00 +14°C° 0 mm 4 mps 737 mmHg 95%
    01:00 +13°C° 0 mm 4 mps 738 mmHg 95%
    02:00 +12°C° 0 mm 4 mps 738 mmHg 96%
    03:00 +12°C° 0 mm 3 mps 739 mmHg 95%
    04:00 +11°C° 0 mm 3 mps 740 mmHg 95%
    05:00 +11°C° 0 mm 3 mps 740 mmHg 94%
    06:00 +12°C° 0 mm 3 mps 741 mmHg 91%
    07:00 +12°C° 0 mm 3 mps 741 mmHg 88%
    08:00 +13°C° 0 mm 3 mps 741 mmHg 85%
    09:00 +16°C° 0 mm 3 mps 742 mmHg 74%
    10:00 +18°C° 0 mm 3 mps 742 mmHg 63%
    11:00 +19°C° 0 mm 3 mps 742 mmHg 53%
    12:00 +20°C° 0 mm 3 mps 742 mmHg 50%
    13:00 +21°C° 0 mm 3 mps 742 mmHg 48%
    14:00 +21°C° 0 mm 3 mps 742 mmHg 46%
    15:00 +21°C° 0 mm 3 mps 742 mmHg 49%
    16:00 +21°C° 0 mm 2 mps 742 mmHg 53%
    17:00 +20°C° 0 mm 2 mps 742 mmHg 56%
    18:00 +19°C° 0 mm 2 mps 742 mmHg 64%
    19:00 +17°C° 0 mm 2 mps 742 mmHg 71%
    20:00 +15°C° 0 mm 2 mps 742 mmHg 78%
    21:00 +15°C° 0 mm 2 mps 741 mmHg 80%
    22:00 +15°C° 0 mm 2 mps 741 mmHg 82%
    23:00 +15°C° 0 mm 2 mps 741 mmHg 83%
    Show more